Weather Roundup
Issued by NWS

Home | Current Version | Previous Version | Text Only | Print | Product List | Glossary On
Versions: 1 2 3 4 5 6 7 8 9 10 11 12 13 14 15 16 17 18 19 20 21 22 23 24 25 26 27 28 29 30 31 32 33 34 35 36 37 38 39 40 41 42 43 44 45 46 47 48 49 50
000
NZUS93 KARX 280410
HRRWXR

CURRENT HOURLY OBSERVATIONS ACROSS
MUCH OF THE UPPER MISSISSIPPI VALLEY
NATIONAL WEATHER SERVICE LA CROSSE WI
1000 PM CST THU NOV 27 2014


...SOUTHEAST MINNESOTA...


CITY           SKY/WX    TMP DP  RH WIND       PRES   REMARKS
ROCHESTER      CLOUDY     7  -1  70 S10       30.27F WCI  -8
ROCHESTER/MAYO CLOUDY     7  -2  66 SE8       30.29S WCI  -6
WINONA         MOCLDY    10   3  72 CALM      30.36F
AUSTIN         CLOUDY     7   0  72 S10       30.27F WCI  -8
ALBERT LEA     CLOUDY     9   0  66 S12       30.26F WCI  -6
DODGE CENTER   CLOUDY     9   1  72 S10       30.27F WCI  -6
PRESTON        CLOUDY     7   0  74 S5        30.29S WCI  -2
OWATONNA       CLOUDY     7  -4  61 SE8       30.27S WCI  -6
FARIBAULT      CLOUDY     7  -2  66 SE6       30.29S WCI  -3
$$

...ELSEWHERE IN MINNESOTA...


CITY           SKY/WX    TMP DP  RH WIND       PRES   REMARKS
MINNEAPOLIS    CLOUDY     6  -4  63 SE7       30.32S WCI  -6
INTNL FALLS    MOCLDY     1  -6  72 CALM      30.21F
DULUTH         CLOUDY     5  -5  63 SW9       30.23R WCI  -9
RED WING       CLOUDY    10   0  61 SE6       30.32S WCI   1
REDWOOD FALLS  CLOUDY     4   0  83 SE15      30.21F WCI -14
MANKATO        CLOUDY     5  -2  72 SE6       30.26F WCI  -6
WORTHINGTON    CLOUDY     9   3  78 SE15G23   30.12F WCI  -8
FAIRMONT       CLOUDY     7   0  72 S14       30.23F WCI -10
$$

...SOUTHWEST WISCONSIN...


CITY           SKY/WX    TMP DP  RH WIND       PRES   REMARKS
LA CROSSE      CLOUDY    12   3  67 S5        30.36F WCI   4
PRAIRIE DU CHI MOCLDY    12   2  62 E3        30.35F
BOSCOBEL       PTCLDY    11   5  77 CALM      30.37F
LONE ROCK      PTCLDY    12   3  67 E3        30.37F
PLATTEVILLE    PTCLDY    11   2  66 CALM      30.34F
FORT MC COY    MOCLDY     7   3  85 CALM      30.36F
CAMP DOUGLAS   CLOUDY     6   5  95 SE2       30.35F
VIROQUA        MOCLDY     9   1  72 SE6       30.30F WCI  -1
WIS DELLS      PTCLDY     7   4  89 CALM      30.36S
$$

...ELSEWHERE IN WISCONSIN...


CITY           SKY/WX    TMP DP  RH WIND       PRES   REMARKS
MILWAUKEE      PTCLDY    15   7  70 W5        30.38F WCI   8
MADISON        CLOUDY    10   5  80 CALM      30.38R
GREEN BAY      PTCLDY     6   2  83 VRB3      30.35F
EAU CLAIRE     MOCLDY     7  -1  70 SE3       30.32F
BLACK RVR FLS  MOCLDY     7   2  82 CALM      30.36S
MEDFORD        PTCLDY    -3  -6  85 CALM      30.26F
WAUSAU         MOCLDY     1  -2  87 CALM      30.29F
WIS RAPIDS     PTCLDY     0  -5  79 CALM      30.35F
MARSHFIELD     PTCLDY     1  -4  79 CALM      30.30F
RICE LAKE      MOCLDY     5  -2  74 SE5       30.31S WCI  -4
$$

...NORTHEAST IOWA...


CITY           SKY/WX    TMP DP  RH WIND       PRES   REMARKS
DECORAH        CLOUDY     9   1  72 CALM      30.31R
MASON CITY     CLOUDY     8   0  69 SE12      30.29F WCI  -7
CHARLES CITY   CLOUDY     9   0  66 S9        30.33S WCI  -5
OELWEIN        CLOUDY     9   1  72 S9        30.35S WCI  -5
$$

...ELSEWHERE IN IOWA...


CITY           SKY/WX    TMP DP  RH WIND       PRES   REMARKS
DES MOINES     MOCLDY    15   4  61 SE8       30.31F WCI   4
IOWA CITY      CLOUDY    11   6  81 SW5       30.42F WCI   3
FORT DODGE     CLOUDY     9   1  72 SE5       30.28F WCI   0
$$

...NORTHERN ILLINOIS...


CITY           SKY/WX    TMP DP  RH WIND       PRES   REMARKS
CHICAGO-OHARE  PTCLDY    15   9  76 CALM      30.40R
CHICAGO-MIDWAY PTCLDY    20  10  65 NW5       30.41S WCI  13
MOLINE         PTCLDY    13   6  74 SW3       30.41S
ROCKFORD       MOCLDY    13   2  61 CALM      30.42S
PEORIA         PTCLDY    15   9  76 W3        30.43F
$$

NOTE: "FAIR" INDICATES FEW OR NO CLOUDS BELOW 12,000 FEET WITH NO
SIGNIFICANT WEATHER AND/OR OBSTRUCTIONS TO VISIBILITY. WIND
SPEEDS ARE IN MILES-PER-HOUR.



USA.gov is the U.S. government's official web portal to all federal, state and local government web resources and services.